Location: Unspecified
(0.0000°N, 0.0000°E)
Time: 05:40:26
(UTC+00:00)

Transit 2A - Pass Details

Date: 06 October 2020
Orbit: 593 x 966 km, 66.7° (Epoch: 28 October)

Event Time Altitude Azimuth Distance (km) Brightness Sun altitude
Rises 16:10:05 0° 354° (N) 3,198 9.2 24.3°
Reaches altitude 10° 16:12:44 10° 3° (N) 2,211 8.4 23.7°
Maximum altitude 16:17:18 36° 69° (ENE) 1,067 6.5 22.6°
Drops below altitude 10° 16:21:30 10° 136° (SE) 2,030 7.9 21.5°
Sets 16:23:49 0° 144° (SE) 2,901 8.7 20.9°
